METEOR 2-11 DEB, 40710

Orbit data source: Space-Track

METEOR 2-11 DEB, 40710 is space debris in LEO originally from a launch on Thu, 05 Jul 1984 UTC launched from the Plesetsk Missile And Space Complex (PKMTR). Debris objects in space refer to the collection of defunct objects orbiting the Earth. Examples of debris include non-operational satellites, rocket bodies, and fragments generated from explosions, collisions, or faulty payload assembly.

Loading next visibility...
METEOR 2-11 DEB details
Identifier
40710, 1984-072M
Orbit
LEO
Last TLE update1 day ago
Origin
Flag of CISVVKO (CIS)
ManufacturerUnknown
MissionSpacecraft
Bus & MotorUnknown
MassUnknown
Launch date (UTC)
1984-07-05 (40 years ago)
Launch vehicleUnknown
Launch site
Plesetsk Missile And Space Complex (PKMTR)
Object type
Payload
Rocket body
Debris
Shape & HBRUnknown
Radar Cross SectionSmall (<0.1 m²)

Expand to show TLE details & history

TLE from 1 day ago
0 METEOR 2-11 DEB
1 40710U 84072M   24339.10921904  .00004138  00000-0  30785-2 0  9991
2 40710  82.5234 105.1292 0036700 188.8778 171.1744 13.94422849511313
Epoch: 2024-12-04T02:37Z
Definitive object data (Epoch: 2024-12-04T02:37:16.525Z)
Latitude0.00003°
Longitude-7.59874°
Altitude942.538 km
Speed7.367 km/s
True Right ascension07h 00m 31s
True Declination0° 00' 00"
Sunlit
Object was in full shadow at TLE epoch
Visualization TLE readout
Latitude76.07939°
Longitude23.30043°
Altitude934.104 km
Speed7.387 km/s
Apparent Right ascension13h 30m 03s
Apparent Declination29° 25' 18"
Sunlit
Object is in daylight
Visualization observer readout
Local Sidereal Time02:47:10
Azimuth17.643° NNE
Elevation-18.384°
Doppler factor1
Orbital elements
Apogee altitude937.059 km
Perigee altitude883.562 km
Semi-major axis7,288.448 km
Eccentricity0.00367
Inclination82.5234°
RAAN105.1292°
Arg. of periapsis188.8778°
True anomaly171.23863°
Mean anomaly171.1744°
Eccentric anomaly171.20655°
Mean motion3.48811 °/min
BSTAR0.0030785
Orbital period103.21 mins
Loading maneuver chart data...
Loading historical data...
Loading historical data...
Loading historical data...
Loading historical data...
Loading historical data...
Loading historical data...
Loading historical data...

METEOR 2-11 DEB Visibility forecast

Observer location: undefined°, undefined

Span
Click to sort rows by Start time (UTC) header in descending order
Start Az.
Max El. time (UTC)
Max El. Az.
Max El.
End time (UTC)
End Az.
7 mins2024-12-05 08:01:42.709Z125.106° SE2024-12-05 08:05:42.709Z80.372° E18.825°2024-12-05 08:08:42.709Z46.6° ENE
10 mins2024-12-05 09:44:42.709Z208.048° SW2024-12-05 09:48:42.709Z269.022° W39.38°2024-12-05 09:54:42.709Z358.452° N
4 mins2024-12-05 18:50:42.709Z46.469° ENE2024-12-05 18:52:42.709Z68.479° E13.487°2024-12-05 18:54:42.709Z90.05° ESE
10 mins2024-12-05 20:32:42.709Z348.72° N2024-12-05 20:37:42.709Z221.521° SW43.88°2024-12-05 20:42:42.709Z179.641° S
|